Weather History for KHHF - May, 2013

Change the Weather History Date:

Monday, May 13, 2013

  Actual Average (KPPA) Record (KPPA)
Temperature  
Mean Temperature 74 °F -  
Max Temperature 92 °F 75 °F 95 °F (1970)
Min Temperature 55 °F 50 °F 34 °F (1966)
Cooling Degree Days 8    
Growing Degree Days 24 (Base 50)    
Moisture  
Dew Point 37 °F    
Average Humidity 27    
Maximum Humidity 61    
Minimum Humidity 11    
Precipitation  
Precipitation 0.00 in - - ()
Sea Level Pressure  
Sea Level Pressure 30.07 in    
Wind  
Wind Speed 9 mph (SW)    
Max Wind Speed 22 mph    
Max Gust Speed 26 mph    
Visibility 10 miles    
Events      
Averages and records for this station are not official NWS values.
T = Trace of Precipitation, MM = Missing Value Source: NWS Daily Summary

Daily Weather History Graph

Daily Weather History Graph

Search for Another Location

Airport or City:

Trip Planner

Search our weather history database for the weather conditions in past years. The results will help you decide how hot, cold, wet, or windy it might be!

Date:

Astronomy

May. 13, 2013 Rise Set
Actual Time 6:37 AM CDT 8:38 PM CDT
Civil Twilight 6:09 AM CDT 9:07 PM CDT
Nautical Twilight 5:34 AM CDT 9:41 PM CDT
Astronomical Twilight 4:57 AM CDT 10:19 PM CDT
Moon 9:25 AM CDT (5/13) 11:49 PM CDT (5/13)
Length of Visible Light 14h 58m
Length of Day
14h 01m
Waxing Crescent, 12% of the Moon is Illuminated
May 13
Waxing Crescent
May 17
First Quarter
May 24
Full
May 31
Last Quarter
Jun 8
New

Hourly Weather History & Observations

Time (CDT) Temp. Dew Point Humidity Pressure Visibility Wind Dir Wind Speed Gust Speed Precip Events Conditions
12:15 AM 64.2 °F 43.5 °F 47% 30.08 in 10.0 mi SW 5.8 mph - N/A   Clear
12:35 AM 64.2 °F 44.1 °F 48% 30.09 in 10.0 mi West 3.5 mph - N/A   Clear
12:55 AM 62.8 °F 44.6 °F 51% 30.09 in 10.0 mi West 3.5 mph - N/A   Clear
1:15 AM 62.2 °F 44.8 °F 53% 30.09 in 10.0 mi NNE 3.5 mph - N/A   Clear
1:35 AM 62.1 °F 44.4 °F 52% 30.09 in 10.0 mi West 4.6 mph - N/A   Clear
1:55 AM 63.1 °F 43.0 °F 48% 30.09 in 10.0 mi Calm Calm - N/A   Clear
2:15 AM 63.3 °F 42.3 °F 46% 30.09 in 10.0 mi Calm Calm - N/A   Clear
2:35 AM 61.7 °F 42.1 °F 49% 30.09 in 10.0 mi SSW 5.8 mph - N/A   Clear
2:55 AM 60.8 °F 41.9 °F 50% 30.08 in 10.0 mi South 4.6 mph - N/A   Clear
3:15 AM 56.8 °F 43.2 °F 60% 30.09 in 10.0 mi Calm Calm - N/A   Clear
3:35 AM 55.8 °F 42.4 °F 61% 30.08 in 10.0 mi SSW 3.5 mph - N/A   Clear
3:55 AM 60.3 °F 39.9 °F 47% 30.08 in 10.0 mi SSW 6.9 mph - N/A   Clear
4:15 AM 63.9 °F 37.8 °F 38% 30.08 in 10.0 mi SW 11.5 mph - N/A   Clear
4:35 AM 65.7 °F 36.7 °F 34% 30.08 in 10.0 mi SW 13.8 mph 19.6 mph N/A   Clear
4:55 AM 64.4 °F 36.7 °F 36% 30.08 in 10.0 mi SW 12.7 mph - N/A   Clear
5:15 AM 64.4 °F 36.5 °F 36% 30.08 in 10.0 mi SW 11.5 mph - N/A   Clear
5:35 AM 64.2 °F 36.5 °F 36% 30.08 in 10.0 mi SW 8.1 mph - N/A   Clear
5:55 AM 64.4 °F 36.5 °F 36% 30.08 in 10.0 mi SW 8.1 mph - N/A   Clear
6:15 AM 64.6 °F 36.7 °F 36% 30.09 in 10.0 mi SW 11.5 mph - N/A   Clear
6:35 AM 65.1 °F 36.9 °F 35% 30.09 in 10.0 mi SW 10.4 mph - N/A   Clear
6:55 AM 65.7 °F 36.9 °F 35% 30.09 in 10.0 mi SW 12.7 mph - N/A   Clear
7:15 AM 67.1 °F 37.4 °F 34% 30.10 in 10.0 mi SW 12.7 mph 18.4 mph N/A   Clear
7:35 AM 67.5 °F 37.9 °F 34% 30.11 in 10.0 mi SW 11.5 mph - N/A   Clear
7:55 AM 69.4 °F 38.5 °F 32% 30.11 in 10.0 mi SW 9.2 mph - N/A   Clear
8:15 AM 72.0 °F 37.6 °F 29% 30.11 in 10.0 mi WSW 17.3 mph 21.9 mph N/A   Clear
8:35 AM 72.7 °F 37.8 °F 28% 30.12 in 10.0 mi WSW 17.3 mph 23.0 mph N/A   Clear
8:55 AM 73.6 °F 37.6 °F 27% 30.13 in 10.0 mi WSW 19.6 mph 26.5 mph N/A   Clear
9:15 AM 75.2 °F 38.3 °F 26% 30.13 in 10.0 mi West 12.7 mph - N/A   Clear
9:35 AM 76.3 °F 37.9 °F 25% 30.13 in 10.0 mi West 21.9 mph 26.5 mph N/A   Clear
9:55 AM 77.5 °F 38.3 °F 24% 30.13 in 10.0 mi West 17.3 mph 23.0 mph N/A   Clear
10:15 AM 79.0 °F 38.5 °F 23% 30.13 in 10.0 mi WSW 18.4 mph 21.9 mph N/A   Clear
10:35 AM 80.1 °F 38.7 °F 23% 30.13 in 10.0 mi WSW 17.3 mph 21.9 mph N/A   Clear
10:55 AM 81.1 °F 38.3 °F 22% 30.13 in 10.0 mi West 12.7 mph - N/A   Clear
11:15 AM 82.0 °F 37.6 °F 20% 30.12 in 10.0 mi West 13.8 mph - N/A   Clear
11:35 AM 83.5 °F 37.4 °F 19% 30.12 in 10.0 mi West 15.0 mph 19.6 mph N/A   Clear
11:55 AM 84.9 °F 37.9 °F 19% 30.12 in 10.0 mi West 10.4 mph 17.3 mph N/A   Clear
12:15 PM 86.0 °F 38.7 °F 19% 30.11 in 10.0 mi West 10.4 mph - N/A   Clear
12:35 PM 86.9 °F 37.2 °F 17% 30.11 in 10.0 mi West 9.2 mph 16.1 mph N/A   Clear
12:55 PM 88.2 °F 37.6 °F 17% 30.10 in 10.0 mi SW 6.9 mph - N/A   Clear
1:15 PM 89.8 °F 34.3 °F 14% 30.09 in 10.0 mi West 11.5 mph 17.3 mph N/A   Clear
1:35 PM 90.5 °F 33.6 °F 13% 30.09 in 10.0 mi WSW 12.7 mph 17.3 mph N/A   Clear
1:55 PM 90.5 °F 32.2 °F 13% 30.09 in 10.0 mi WSW 10.4 mph 20.7 mph N/A   Clear
2:15 PM 91.2 °F 32.2 °F 12% 30.07 in 10.0 mi WSW 9.2 mph 20.7 mph N/A   Clear
2:35 PM 90.7 °F 29.8 °F 11% 30.07 in 10.0 mi Calm Calm - N/A   Clear
3:35 PM 90.7 °F 29.5 °F 11% 30.05 in 10.0 mi West 12.7 mph 17.3 mph N/A   Clear
3:55 PM 91.6 °F 31.1 °F 12% 30.05 in 10.0 mi SW 10.4 mph 23.0 mph N/A   Clear
4:15 PM 92.7 °F 32.7 °F 12% 30.05 in 10.0 mi WSW 9.2 mph 21.9 mph N/A   Clear
4:35 PM 91.9 °F 31.1 °F 11% 30.04 in 10.0 mi SW 3.5 mph 17.3 mph N/A   Clear
4:55 PM 92.3 °F 30.9 °F 11% 30.03 in 10.0 mi SW 12.7 mph 23.0 mph N/A   Clear
5:15 PM 92.7 °F 33.8 °F 12% 30.03 in 10.0 mi SW 13.8 mph 17.3 mph N/A   Clear
5:35 PM 91.9 °F 32.5 °F 12% 30.02 in 10.0 mi SW 11.5 mph 18.4 mph N/A   Clear
5:55 PM 92.1 °F 31.5 °F 12% 30.02 in 10.0 mi SW 6.9 mph 19.6 mph N/A   Clear
6:35 PM 91.6 °F 31.5 °F 12% 30.01 in 10.0 mi WSW 11.5 mph 15.0 mph N/A   Clear
7:15 PM 90.5 °F 32.5 °F 13% 29.99 in 10.0 mi SSW 13.8 mph 20.7 mph N/A   Clear
7:35 PM 89.2 °F 32.5 °F 13% 29.99 in 10.0 mi SSW 15.0 mph - N/A   Clear
7:55 PM 87.8 °F 34.7 °F 15% 29.99 in 10.0 mi SSW 12.7 mph - N/A   Clear
8:15 PM 84.7 °F 36.0 °F 18% 30.00 in 10.0 mi South 9.2 mph - N/A   Clear
8:35 PM 83.1 °F 35.6 °F 18% 30.00 in 10.0 mi SSW 11.5 mph - N/A   Clear
8:55 PM 81.5 °F 36.3 °F 20% 30.01 in 10.0 mi South 13.8 mph - N/A   Clear
9:15 PM 80.8 °F 36.1 °F 20% 30.01 in 10.0 mi South 15.0 mph - N/A   Clear
9:35 PM 79.3 °F 36.5 °F 21% 30.02 in 10.0 mi South 13.8 mph - N/A   Clear
9:55 PM 77.5 °F 37.0 °F 23% 30.02 in 10.0 mi SSW 13.8 mph - N/A   Clear
10:15 PM 76.5 °F 37.6 °F 25% 30.03 in 10.0 mi SSW 12.7 mph - N/A   Clear
10:35 PM 75.2 °F 37.6 °F 26% 30.03 in 10.0 mi SSW 13.8 mph - N/A   Clear
10:55 PM 75.2 °F 37.4 °F 25% 30.04 in 10.0 mi SSW 13.8 mph 19.6 mph N/A   Clear
11:15 PM 73.8 °F 36.5 °F 26% 30.04 in 10.0 mi SSW 15.0 mph - N/A   Clear
11:35 PM 73.6 °F 35.6 °F 25% 30.04 in 10.0 mi SSW 17.3 mph 20.7 mph N/A   Clear
11:55 PM 72.9 °F 35.6 °F 26% 30.04 in 10.0 mi SSW 13.8 mph - N/A   Clear